Location: Eyeline Observatory
(43.2182°N, 78.8632°W)
Time: 19:41:56
(UTC-05:00)

Tiangong 2 - Pass Details

Date: 15 October 2017
Orbit: 386 x 390 km, 42.8° (Epoch: 16 December)

Event Time Altitude Azimuth Distance (km) Brightness Sun altitude
Exits shadow 05:34:48 55° 96° (E) 474 1.7 -21.6°
Drops below altitude 10° 05:37:24 10° 90° (E) 1,423 5.1 -21.1°
Sets 05:39:29 0° 90° (E) 2,280 6.5 -20.8°
